Flag for Japan Weather past 2 weeks in Sapporo, Japan

Now
79 °F

Warm.


Feels Like: 82 °F
Forecast: 68 / 82 °F
Wind: 8 mph from East

Location: Sapporo

Current Time: Jul 28, 2015 at 11:13:39 AM

Latest Report: Jul 28, 2015 at 10:00 AM


Visibility: N/A

Pressure: 29.73 "Hg

Humidity: 69%

Dew point: 68 °F

Location of SapporoLocation

Historic Weather in Sapporo — Graph

°F

Sapporo temperature yesterday

Maximum temperature yesterday: 84 °F (at 11:00 AM)
Minimum temperature yesterday: 72 °F (at 5:00 AM)
Average temperature yesterday: 77 °F

Past Weeks' High & Low Weather Summary

 TemperatureHumidityPressure
High87 °F (Jul 14, 1:00 PM)95% (Jul 19, 12:00 AM)29.96 "Hg (Jul 19, 12:00 AM)
Low56 °F (Jul 17, 4:00 AM)31% (Jul 17, 12:00 PM)29.44 "Hg (Jul 14, 11:00 AM)
Average72 °F76%29.76 "Hg
* Reported Jul 13 9:00 AM — Jul 28 9:00 AM, Sapporo, Weather by CustomWeather, © 2015

Note: Actual official high and low records may vary slightly from our data, if they occured in-between our weather recording intervals... More about our weather records

Advertising

Sapporo weather history for previous 24 hours

 ConditionsComfort  
Time TempWeatherWind HumidityBarometerVisibility
9:00 AM
Tue, Jul 28
80 °FOvercast.5 mph70%29.72 "Hg12 mi
8:00 AM78 °FWarm.3 mph74%29.73 "HgN/A
7:00 AM76 °FMild.5 mph77%29.73 "HgN/A
5:00 AM73 °FMild.6 mph86%29.71 "HgN/A
4:00 AM74 °FMild.2 mph87%29.70 "HgN/A
3:00 AM75 °FOvercast.5 mph85%29.70 "Hg6 mi
2:00 AM75 °FMild.3 mph85%29.70 "HgN/A
1:00 AM76 °FMild.5 mph84%29.70 "HgN/A
12:00 AM75 °FMild.5 mph84%29.71 "HgN/A
11:00 PM
Mon, Jul 27
75 °FMild.1 mph84%29.74 "HgN/A
10:00 PM75 °FMild.3 mph83%29.75 "HgN/A
9:00 PM77 °FOvercast.3 mph80%29.74 "Hg9 mi
8:00 PM77 °FMild.2 mph81%29.72 "HgN/A
7:00 PM77 °FMild.3 mph80%29.71 "HgN/A
6:00 PM77 °FOvercast.6 mph80%29.71 "Hg12 mi
5:00 PM77 °FWarm.7 mph80%29.72 "HgN/A
4:00 PM79 °FWarm.8 mph76%29.71 "HgN/A
3:00 PM82 °FOvercast.8 mph69%29.69 "Hg12 mi
2:00 PM82 °FWarm.7 mph69%29.69 "HgN/A
11:00 AM84 °FWarm.7 mph65%29.70 "HgN/A
Weather by CustomWeather, © 2015

See weather overviewHow to use our weather pages